DW1920 Weather Reports


Display with metric or nautical units.
time (UTC)temp
F
wind
direction
speed
MPH
gust
MPH
rain 1hr
in
rain 24hr
in
rain mn
in
humidity
%
barometer
mb
20260509061024 43 275 4.0 7.0 0.00 0.00 0.00 76 1011.8
20260509060003 43 281 4.0 5.0 0.00 0.00 0.00 76 1011.7
20260509055003 44 281 4.0 5.0 0.00 0.00 0.00 75 1011.8
20260509054002 44 303 3.0 4.0 0.00 0.00 0.00 74 1011.8
20260509053003 44 303 3.0 5.0 0.00 0.00 0.00 73 1011.8
20260509052003 44 305 3.0 6.0 0.00 0.00 0.00 73 1011.8
20260509051003 44 306 3.0 7.0 0.00 0.00 0.00 73 1011.9
20260509050003 44 278 6.0 8.0 0.00 0.00 0.00 72 1011.8
20260509045003 44 337 2.0 6.0 0.00 0.00 0.00 67 1011.9
20260509044003 44 339 4.0 5.0 0.00 0.00 0.00 66 1011.9
20260509043003 44 336 4.0 7.0 0.00 0.00 0.00 66 1011.8
20260509042023 44 324 6.0 7.0 0.00 0.00 0.00 68 1011.6
20260509041003 44 324 5.0 6.0 0.00 0.00 0.00 68 1011.5
20260509040003 43 326 5.0 7.0 0.00 0.00 0.00 71 1011.5
20260509035045 42 322 6.0 7.0 0.00 0.00 0.00 73 1011.3
20260509034003 42 313 5.0 6.0 0.00 0.00 0.00 74 1011.3
20260509033003 42 305 4.0 6.0 0.00 0.00 0.00 73 1011.2
20260509032003 42 304 5.0 6.0 0.00 0.00 0.00 73 1011.1
20260509031002 42 312 5.0 6.0 0.00 0.00 0.00 72 1010.8
20260509030003 43 318 5.0 6.0 0.00 0.00 0.00 71 1010.7
20260509025003 44 299 4.0 6.0 0.00 0.00 0.00 69 1010.7
20260509024024 43 298 5.0 8.0 0.00 0.00 0.00 70 1010.7
20260509023003 43 302 5.0 6.0 0.00 0.00 0.00 73 1010.5
20260509022024 42 301 4.0 6.0 0.00 0.00 0.00 74 1010.3
20260509021003 42 299 4.0 4.0 0.00 0.00 0.00 73 1010.1
20260509020003 43 288 3.0 3.0 0.00 0.00 0.00 72 1010.0
20260509015002 44 287 3.0 4.0 0.00 0.00 0.00 71 1010.0
20260509014003 45 288 3.0 4.0 0.00 0.00 0.00 69 1010.0
20260509013003 45 288 3.0 4.0 0.00 0.00 0.00 69 1009.8
20260509012003 44 287 3.0 7.0 0.00 0.00 0.00 70 1009.6
20260509011003 44 304 3.0 6.0 0.00 0.00 0.00 73 1009.3
20260509010003 44 326 2.0 3.0 0.00 0.00 0.00 72 1009.1
20260509005003 46 326 2.0 3.0 0.00 0.00 0.00 69 1009.0
20260509004002 48 326 2.0 3.0 0.00 0.00 0.00 66 1008.8
20260509003003 50 326 2.0 3.0 0.00 0.00 0.00 59 1008.7
20260509002003 50 326 2.0 5.0 0.00 0.00 0.00 55 1008.6
20260509001002 51 305 2.0 8.0 0.00 0.00 0.00 54 1008.4
20260509000003 51 295 4.0 10.0 0.00 0.00 0.00 53 1008.3
20260508235002 52 289 9.0 16.0 0.00 0.00 0.00 52 1008.2
20260508234003 52 286 7.0 11.0 0.00 0.00 0.00 53 1008.1
20260508233003 53 292 5.0 9.0 0.00 0.00 0.00 53 1008.0
20260508232003 53 283 5.0 10.0 0.00 0.00 0.00 52 1007.9
20260508231003 54 293 5.0 10.0 0.00 0.00 0.00 51 1007.7
20260508230023 54 295 8.0 15.0 0.00 0.00 0.00 49 1007.7
20260508225003 54 291 9.0 15.0 0.00 0.00 0.00 50 1007.6
20260508224025 54 291 10.0 17.0 0.00 0.00 0.00 51 1007.5
20260508223002 55 280 9.0 17.0 0.00 0.00 0.00 54 1007.3
20260508222003 55 295 9.0 15.0 0.00 0.00 0.00 56 1007.2
20260508220003 52 265 4.0 8.0 0.00 0.00 0.00 77 1007.2
20260508215003 50 259 3.0 11.0 0.00 0.00 0.00 78 1007.2
20260508214003 49 266 5.0 10.0 0.00 0.00 0.00 78 1007.1
20260508213025 49 261 5.0 10.0 0.00 0.00 0.00 78 1007.0
20260508212003 50 238 5.0 11.0 0.00 0.00 0.00 78 1007.0
20260508211002 51 222 10.0 12.0 0.00 0.00 0.00 77 1006.8
20260508210003 51 227 7.0 9.0 0.00 0.00 0.00 75 1006.6
20260508205003 50 255 4.0 14.0 0.00 0.00 0.00 75 1006.7
20260508204003 49 273 7.0 18.0 0.00 0.00 0.00 78 1006.6
20260508203003 49 262 9.0 14.0 0.00 0.00 0.00 79 1006.4
20260508202003 49 230 7.0 11.0 0.00 0.00 0.00 80 1006.2
20260508201024 49 250 5.0 12.0 0.00 0.00 0.00 81 1006.2
20260508200024 48 235 5.0 11.0 0.00 0.00 0.00 81 1006.0
20260508195046 48 225 8.0 14.0 0.00 0.00 0.00 81 1006.1
20260508194003 49 214 10.0 14.0 0.00 0.00 0.00 80 1005.9
20260508193003 49 212 8.0 15.0 0.00 0.00 0.00 80 1005.8
20260508192003 49 217 9.0 12.0 0.00 0.00 0.00 79 1005.9
20260508191003 50 215 8.0 12.0 0.00 0.00 0.00 78 1006.0
20260508190004 50 224 9.0 12.0 0.00 0.00 0.00 78 1005.9
20260508185003 51 221 7.0 11.0 0.00 0.00 0.00 78 1005.9
20260508184024 49 225 8.0 13.0 0.00 0.00 0.00 80 1006.0
20260508183024 49 220 10.0 15.0 0.00 0.00 0.00 79 1006.1
20260508182003 49 224 11.0 15.0 0.00 0.00 0.00 79 1006.1
20260508181002 49 224 11.0 17.0 0.00 0.00 0.00 79 1006.1
20260508180003 49 215 10.0 17.0 0.00 0.00 0.00 77 1006.0
20260508175002 51 217 11.0 17.0 0.00 0.00 0.00 77 1005.9
20260508174003 51 224 13.0 16.0 0.00 0.00 0.00 78 1006.0
20260508173024 49 236 7.0 16.0 0.00 0.00 0.00 76 1006.0
20260508172002 50 232 5.0 13.0 0.00 0.00 0.00 75 1005.8
20260508171003 50 219 7.0 15.0 0.00 0.00 0.00 76 1005.7
20260508170003 50 218 10.0 14.0 0.00 0.00 0.00 77 1005.7
20260508165004 49 228 10.0 16.0 0.00 0.00 0.00 77 1005.8
20260508164003 49 217 11.0 17.0 0.00 0.00 0.00 76 1005.8
20260508163003 50 214 10.0 18.0 0.00 0.00 0.00 74 1005.7
20260508162002 52 220 13.0 17.0 0.00 0.00 0.00 71 1005.6
20260508161003 52 218 10.0 15.0 0.00 0.00 0.00 71 1005.5
20260508160004 52 215 9.0 15.0 0.00 0.00 0.00 71 1005.6
20260508155045 53 218 9.0 14.0 0.00 0.00 0.00 69 1005.8
20260508153002 56 264 10.0 20.0 0.00 0.00 0.00 45 1005.8
20260508152003 55 265 10.0 16.0 0.00 0.00 0.00 47 1005.8
20260508151002 55 302 8.0 19.0 0.00 0.00 0.00 44 1005.8
20260508150003 55 299 12.0 21.0 0.00 0.00 0.00 47 1005.9
20260508145023 55 297 12.0 19.0 0.00 0.00 0.00 47 1006.0
20260508143002 52 273 13.0 20.0 0.00 0.00 0.00 54 1006.0
20260508142003 50 272 11.0 17.0 0.00 0.00 0.00 67 1006.1
20260508141003 50 247 5.0 12.0 0.00 0.00 0.00 73 1006.4
20260508140003 50 222 8.0 13.0 0.00 0.00 0.00 74 1006.4
20260508135003 50 219 6.0 12.0 0.00 0.00 0.00 74 1006.5
20260508134003 51 229 5.0 16.0 0.00 0.00 0.00 69 1006.4
20260508133003 52 266 8.0 16.0 0.00 0.00 0.00 56 1006.4
20260508132024 52 260 10.0 14.0 0.00 0.00 0.00 57 1006.5
20260508131003 52 273 10.0 19.0 0.00 0.00 0.00 55 1006.5
20260508130003 52 274 10.0 17.0 0.00 0.00 0.00 56 1006.5
20260508125002 51 293 8.0 15.0 0.00 0.00 0.00 57 1006.7
20260508124024 50 288 10.0 16.0 0.00 0.00 0.00 57 1006.8
20260508123002 49 272 5.0 10.0 0.00 0.00 0.00 67 1006.8
20260508122003 48 267 6.0 11.0 0.00 0.00 0.00 64 1006.9
20260508121003 47 209 5.0 7.0 0.00 0.00 0.00 70 1006.9
20260508120002 47 228 3.0 8.0 0.00 0.00 0.00 67 1006.9
20260508115003 47 276 7.0 10.0 0.00 0.00 0.00 62 1007.0
20260508114003 47 271 8.0 11.0 0.00 0.00 0.00 62 1007.0
20260508113004 47 273 8.0 11.0 0.00 0.00 0.00 62 1006.9
20260508112024 46 277 7.0 9.0 0.00 0.00 0.00 62 1007.0
20260508111003 46 285 5.0 9.0 0.00 0.00 0.00 62 1006.8
20260508110003 46 283 5.0 10.0 0.00 0.00 0.00 62 1006.8
20260508105002 46 273 6.0 11.0 0.00 0.00 0.00 63 1006.7
20260508104024 45 273 6.0 11.0 0.00 0.00 0.00 65 1006.7
20260508103045 45 271 7.0 10.0 0.00 0.00 0.00 67 1006.6
20260508102003 44 272 6.0 10.0 0.00 0.00 0.00 68 1006.5
20260508101024 44 270 9.0 11.0 0.00 0.00 0.00 68 1006.4
20260508100003 43 271 6.0 9.0 0.00 0.00 0.00 69 1006.1
20260508095003 43 276 3.0 7.0 0.00 0.00 0.00 69 1006.0
20260508094003 43 279 2.0 5.0 0.00 0.01 0.00 69 1005.8
20260508093025 43 279 1.0 4.0 0.00 0.01 0.00 68 1005.7
20260508092024 43 281 2.0 5.0 0.00 0.01 0.00 67 1005.4
20260508091024 43 273 3.0 8.0 0.00 0.01 0.00 67 1005.4
20260508090003 43 266 4.0 7.0 0.00 0.01 0.00 67 1005.1
20260508085024 43 275 1.0 5.0 0.00 0.01 0.00 66 1005.0
20260508084002 44 279 3.0 7.0 0.00 0.01 0.00 64 1005.0
20260508083003 44 293 6.0 9.0 0.00 0.01 0.00 64 1005.1
20260508082002 43 297 5.0 10.0 0.00 0.01 0.00 65 1005.1
20260508081003 43 293 3.0 6.0 0.00 0.01 0.00 67 1005.0
20260508080004 43 314 3.0 5.0 0.00 0.01 0.00 66 1004.9
20260508075003 44 7 0.0 4.0 0.00 0.01 0.00 63 1004.9
20260508074003 44 332 2.0 4.0 0.00 0.01 0.00 62 1004.9
20260508073002 45 338 2.0 5.0 0.00 0.01 0.00 61 1004.7
20260508072003 45 314 2.0 8.0 0.00 0.01 0.00 60 1004.7
20260508071002 45 320 4.0 11.0 0.00 0.01 0.00 60 1004.7
20260508070003 45 300 7.0 12.0 0.00 0.01 0.00 60 1004.6
20260508065003 45 290 6.0 14.0 0.00 0.02 0.00 60 1004.6
20260508064002 46 298 9.0 14.0 0.00 0.02 0.00 59 1004.7
20260508063004 46 315 6.0 13.0 0.00 0.02 0.00 60 1004.7
20260508062002 46 302 7.0 10.0 0.00 0.02 0.00 59 1004.7